contact:dominique.lefevre@mio.osupytheas.fr, maurice.libes@osupytheas.fr, didier.mallarino@osupytheas.fr
Project:EMSO http://www.emso-fr.org/EMSO-France
Depth: 2436.0 m
Title:EMSO Ligure Ouest : Data MII capteur AQUADOPP
Date,Latitude,Longitude,X_East,Y_North,Z_Up,Amplitude_X,Amplitude_Y,Amplitude_Z,Batterie,SoundSpeed,Heading,Pitch,Roll,Pressure,TIS,Speed,Direction
, degrees North, degrees East, m.s-1, m.s-1,m.s-1, 1, 1, 1, Volt, m.s-1, degree, degree, degree, dbar, degree_C, m.s-1, degree
2023-11-08T00:04:03,42.805,6.029,0.008,-0.001,-0.021,104.0,104.0,103.0,13.4,1505.2,341.3,-0.8,1.8,2471.619,13.29,0.008,97.1
2023-11-08T00:07:03,42.805,6.029,0.005,-0.007,-0.004,103.0,104.0,102.0,13.4,1505.2,349.5,-0.8,1.8,2471.604,13.29,0.008,144.5
2023-11-08T00:10:03,42.805,6.029,0.012,-0.001,-0.006,104.0,103.0,102.0,13.4,1505.2,350.3,-0.8,1.8,2471.605,13.29,0.012,94.8
2023-11-08T00:13:03,42.805,6.029,0.004,-0.003,0.01,103.0,103.0,102.0,13.4,1505.2,334.5,-0.8,1.8,2471.613,13.29,0.005,126.9
2023-11-08T00:16:03,42.805,6.029,0.024,0.004,0.022,104.0,103.0,102.0,13.4,1505.2,351.5,-0.8,1.8,2471.595,13.29,0.024,80.5
2023-11-08T00:19:03,42.805,6.029,0.013,0.014,0.007,103.0,105.0,102.0,13.4,1505.2,341.2,-0.7,1.8,2471.611,13.29,0.019,42.9
2023-11-08T00:22:03,42.805,6.029,0.034,0.024,0.009,103.0,104.0,102.0,13.3,1505.2,347.6,-0.8,1.8,2471.602,13.29,0.041,54.8
2023-11-08T00:25:03,42.805,6.029,-0.002,0.015,-0.017,104.0,104.0,101.0,13.3,1505.2,339.1,-0.8,1.8,2471.573,13.29,0.015,352.4
2023-11-08T00:28:03,42.805,6.029,0.031,-0.014,-0.016,103.0,103.0,102.0,13.4,1505.2,342.3,-0.8,1.9,2471.582,13.29,0.034,114.3
2023-11-08T00:31:03,42.805,6.029,0.044,-0.012,-0.006,103.0,104.0,102.0,13.4,1505.2,346.5,-0.7,1.8,2471.61,13.29,0.045,105.3
2023-11-08T00:34:03,42.805,6.029,0.016,-0.011,0.0,103.0,104.0,102.0,13.3,1505.2,344.7,-0.7,1.8,2471.583,13.29,0.019,124.5
2023-11-08T00:37:03,42.805,6.029,0.03,-0.008,-0.037,105.0,104.0,102.0,13.4,1505.2,352.2,-0.8,1.8,2471.587,13.29,0.031,104.9
2023-11-08T00:40:03,42.805,6.029,0.018,-0.003,0.011,103.0,104.0,102.0,13.4,1505.2,348.6,-0.7,1.8,2471.562,13.29,0.018,99.5
2023-11-08T00:43:03,42.805,6.029,0.008,-0.025,-0.021,105.0,104.0,101.0,13.4,1505.2,351.1,-0.8,1.8,2471.556,13.29,0.026,162.3
2023-11-08T00:46:03,42.805,6.029,0.011,-0.014,0.009,104.0,103.0,102.0,13.4,1505.2,347.7,-0.7,1.8,2471.647,13.29,0.017,141.8
2023-11-08T00:49:03,42.805,6.029,0.035,0.003,-0.001,103.0,104.0,101.0,13.4,1505.2,0.8,-0.8,1.8,2471.635,13.29,0.035,85.1
2023-11-08T00:52:03,42.805,6.029,0.035,-0.018,-0.022,105.0,102.0,102.0,13.3,1505.2,340.9,-0.7,1.8,2471.588,13.29,0.039,117.2
2023-11-08T00:55:03,42.805,6.029,0.038,-0.017,0.003,104.0,103.0,102.0,13.4,1505.2,341.0,-0.8,1.8,2471.567,13.29,0.041,114.1
2023-11-08T00:58:03,42.805,6.029,0.019,0.004,-0.032,104.0,103.0,102.0,13.3,1505.2,335.6,-0.8,1.8,2471.579,13.29,0.019,78.1
2023-11-08T01:04:03,42.805,6.029,0.0,0.009,-0.009,105.0,104.0,102.0,13.4,1505.2,353.0,-0.7,1.8,2471.657,13.29,0.009,0.0
2023-11-08T01:07:03,42.805,6.029,0.016,-0.007,-0.015,103.0,103.0,101.0,13.3,1505.2,341.0,-0.8,1.8,2471.648,13.29,0.017,113.6
2023-11-08T01:10:03,42.805,6.029,0.033,-0.014,0.0,103.0,103.0,101.0,13.4,1505.2,354.2,-0.8,1.8,2471.648,13.29,0.035,113.0
2023-11-08T01:13:03,42.805,6.029,0.033,-0.018,-0.005,102.0,103.0,100.0,13.3,1505.2,333.8,-0.8,1.8,2471.619,13.29,0.037,118.6
2023-11-08T01:16:03,42.805,6.029,0.001,0.011,0.029,104.0,105.0,101.0,13.4,1505.2,0.9,-0.8,1.8,2471.653,13.29,0.011,5.2
2023-11-08T01:19:03,42.805,6.029,0.035,-0.013,-0.003,104.0,103.0,101.0,13.4,1505.2,342.1,-0.7,1.8,2471.61,13.29,0.037,110.4
2023-11-08T01:22:03,42.805,6.029,0.031,0.0,-0.013,105.0,105.0,101.0,13.4,1505.2,352.1,-0.7,1.8,2471.62,13.29,0.03,90.0
2023-11-08T01:25:03,42.805,6.029,0.021,-0.018,-0.023,103.0,104.0,102.0,13.4,1505.2,348.8,-0.8,1.8,2471.6,13.29,0.027,130.6
2023-11-08T01:28:03,42.805,6.029,0.007,0.017,0.001,104.0,103.0,101.0,13.3,1505.2,342.6,-0.8,1.8,2471.592,13.29,0.018,22.4
2023-11-08T01:31:03,42.805,6.029,0.014,-0.006,0.008,103.0,104.0,102.0,13.4,1505.2,344.1,-0.8,1.8,2471.627,13.29,0.015,113.2
2023-11-08T01:34:03,42.805,6.029,0.017,-0.032,-0.023,104.0,104.0,101.0,13.4,1505.2,345.7,-0.8,1.8,2471.574,13.29,0.036,152.0
2023-11-08T01:37:03,42.805,6.029,0.028,-0.005,0.022,105.0,106.0,101.0,13.4,1505.2,353.2,-0.8,1.8,2471.578,13.29,0.028,100.1
2023-11-08T01:40:03,42.805,6.029,0.021,-0.016,-0.027,104.0,103.0,102.0,13.4,1505.2,333.0,-0.8,1.8,2471.599,13.29,0.026,127.3
2023-11-08T01:43:03,42.805,6.029,0.032,-0.016,-0.002,105.0,104.0,102.0,13.3,1505.2,344.6,-0.8,1.8,2471.624,13.29,0.035,116.6
2023-11-08T01:46:03,42.805,6.029,0.004,-0.02,-0.019,104.0,103.0,102.0,13.4,1505.2,344.0,-0.8,1.8,2471.619,13.29,0.02,168.7
2023-11-08T01:49:03,42.805,6.029,0.014,-0.007,-0.011,105.0,104.0,102.0,13.3,1505.2,347.4,-0.8,1.8,2471.611,13.29,0.015,116.6
2023-11-08T01:52:03,42.805,6.029,0.001,-0.003,-0.018,103.0,103.0,103.0,13.3,1505.2,345.9,-0.8,1.8,2471.597,13.29,0.003,161.6
2023-11-08T01:55:03,42.805,6.029,0.003,-0.015,-0.035,104.0,104.0,101.0,13.3,1505.2,0.8,-0.7,1.8,2471.617,13.29,0.015,168.7
2023-11-08T01:58:03,42.805,6.029,-0.001,0.0,0.004,103.0,104.0,102.0,13.3,1505.2,340.4,-0.8,1.8,2471.6,13.29,0.001,270.0
2023-11-08T02:04:03,42.805,6.029,0.01,-0.008,-0.009,105.0,104.0,102.0,13.4,1505.2,356.9,-0.7,1.8,2471.654,13.29,0.012,128.7
2023-11-08T02:07:03,42.805,6.029,0.002,-0.032,-0.017,104.0,105.0,101.0,13.4,1505.2,351.8,-0.8,1.8,2471.67,13.29,0.032,176.4
2023-11-08T02:10:03,42.805,6.029,0.023,0.0,-0.011,104.0,104.0,102.0,13.4,1505.2,339.4,-0.7,1.8,2471.671,13.29,0.023,90.0
2023-11-08T02:13:03,42.805,6.029,0.02,-0.008,-0.002,107.0,102.0,102.0,13.4,1505.2,337.7,-0.7,1.8,2471.645,13.29,0.021,111.8
2023-11-08T02:16:03,42.805,6.029,0.004,-0.008,-0.007,104.0,105.0,102.0,13.3,1505.2,351.1,-0.7,1.8,2471.665,13.29,0.008,153.4
2023-11-08T02:19:03,42.805,6.029,0.019,-0.001,-0.026,105.0,103.0,102.0,13.4,1505.2,342.8,-0.8,1.8,2471.643,13.29,0.019,93.0
2023-11-08T02:22:03,42.805,6.029,0.033,-0.034,0.027,104.0,105.0,101.0,13.3,1505.2,333.0,-0.8,1.8,2471.637,13.29,0.047,135.9
2023-11-08T02:25:03,42.805,6.029,0.032,-0.021,-0.009,104.0,104.0,102.0,13.4,1505.2,349.2,-0.8,1.8,2471.621,13.29,0.038,123.3
2023-11-08T02:28:03,42.805,6.029,0.012,-0.021,-0.043,105.0,104.0,102.0,13.3,1505.2,344.5,-0.8,1.8,2471.673,13.29,0.024,150.3
2023-11-08T02:31:03,42.805,6.029,0.002,-0.02,-0.044,104.0,103.0,101.0,13.3,1505.2,339.2,-0.8,1.8,2471.669,13.29,0.02,174.3
2023-11-08T02:34:03,42.805,6.029,0.004,-0.039,-0.011,104.0,103.0,102.0,13.4,1505.2,357.1,-0.8,1.8,2471.608,13.29,0.039,174.1
2023-11-08T02:37:03,42.805,6.029,0.013,-0.03,-0.013,103.0,104.0,101.0,13.4,1505.2,350.0,-0.7,1.8,2471.61,13.29,0.032,156.6
2023-11-08T02:40:03,42.805,6.029,0.024,-0.015,0.006,103.0,103.0,101.0,13.4,1505.2,345.7,-0.8,1.8,2471.626,13.29,0.028,122.0
2023-11-08T02:43:03,42.805,6.029,0.02,-0.014,-0.03,105.0,102.0,101.0,13.4,1505.2,353.7,-0.8,1.8,2471.652,13.29,0.024,125.0
2023-11-08T02:46:03,42.805,6.029,0.009,-0.019,0.004,102.0,103.0,101.0,13.3,1505.2,354.1,-0.8,1.8,2471.599,13.29,0.021,154.7
2023-11-08T02:49:03,42.805,6.029,0.019,-0.026,-0.021,103.0,103.0,101.0,13.4,1505.2,342.0,-0.7,1.8,2471.6,13.29,0.032,143.8
2023-11-08T02:52:03,42.805,6.029,0.016,-0.032,-0.038,103.0,103.0,102.0,13.4,1505.2,341.2,-0.7,1.8,2471.643,13.29,0.035,153.4
2023-11-08T02:55:03,42.805,6.029,0.006,-0.018,-0.031,106.0,104.0,102.0,13.4,1505.2,334.1,-0.8,1.8,2471.62,13.29,0.018,161.6
2023-11-08T02:58:03,42.805,6.029,0.012,-0.025,-0.01,104.0,104.0,101.0,13.4,1505.2,351.1,-0.8,1.8,2471.643,13.29,0.027,154.4
2023-11-08T03:04:03,42.805,6.029,-0.014,-0.009,-0.048,103.0,103.0,101.0,13.4,1505.2,335.0,-0.8,1.8,2471.672,13.28,0.016,237.3
2023-11-08T03:07:03,42.805,6.029,0.004,-0.026,-0.048,102.0,104.0,100.0,13.3,1505.2,342.0,-0.7,1.8,2471.676,13.29,0.026,171.3
2023-11-08T03:10:03,42.805,6.029,0.013,-0.036,-0.02,103.0,103.0,101.0,13.4,1505.2,357.9,-0.8,1.8,2471.695,13.29,0.038,160.1
2023-11-08T03:13:03,42.805,6.029,0.006,-0.001,-0.017,103.0,103.0,101.0,13.4,1505.2,340.7,-0.8,1.8,2471.649,13.29,0.006,99.5
2023-11-08T03:16:03,42.805,6.029,0.031,-0.016,-0.001,103.0,103.0,101.0,13.4,1505.2,331.9,-0.7,1.8,2471.624,13.29,0.034,117.3
2023-11-08T03:19:03,42.805,6.029,0.038,-0.011,0.021,103.0,103.0,101.0,13.4,1505.2,345.1,-0.8,1.8,2471.655,13.29,0.039,106.1
2023-11-08T03:22:03,42.805,6.029,-0.012,-0.012,-0.016,104.0,103.0,100.0,13.4,1505.2,359.0,-0.8,1.8,2471.652,13.29,0.016,225.0
2023-11-08T03:25:03,42.805,6.029,0.015,-0.026,-0.018,103.0,103.0,101.0,13.4,1505.2,338.8,-0.7,1.8,2471.612,13.29,0.03,150.0
2023-11-08T03:28:03,42.805,6.029,0.017,-0.007,-0.015,104.0,103.0,101.0,13.4,1505.2,351.1,-0.8,1.8,2471.646,13.29,0.018,112.4
2023-11-08T03:31:03,42.805,6.029,0.01,-0.002,0.013,102.0,102.0,102.0,13.3,1505.2,336.6,-0.8,1.8,2471.633,13.29,0.01,101.3
2023-11-08T03:34:03,42.805,6.029,0.008,-0.013,-0.024,102.0,103.0,101.0,13.3,1505.2,352.1,-0.8,1.8,2471.651,13.29,0.015,148.4
2023-11-08T03:37:03,42.805,6.029,0.014,-0.012,-0.048,103.0,103.0,101.0,13.4,1505.2,347.4,-0.7,1.8,2471.636,13.29,0.018,130.6
2023-11-08T03:40:03,42.805,6.029,-0.005,-0.019,-0.016,104.0,101.0,101.0,13.3,1505.2,353.1,-0.8,1.8,2471.611,13.29,0.019,194.7
2023-11-08T03:43:03,42.805,6.029,0.019,-0.005,0.0,103.0,103.0,101.0,13.4,1505.2,347.6,-0.7,1.8,2471.629,13.29,0.019,104.7
2023-11-08T03:46:03,42.805,6.029,0.003,-0.022,-0.028,103.0,101.0,101.0,13.3,1505.2,351.8,-0.8,1.8,2471.647,13.29,0.022,172.2
2023-11-08T03:49:03,42.805,6.029,0.001,-0.038,-0.037,103.0,102.0,100.0,13.4,1505.2,337.7,-0.8,1.8,2471.63,13.29,0.038,178.5
2023-11-08T03:52:03,42.805,6.029,0.014,-0.018,0.013,102.0,104.0,101.0,13.4,1505.2,356.5,-0.8,1.8,2471.641,13.29,0.022,142.1
2023-11-08T03:55:03,42.805,6.029,0.011,-0.01,-0.034,101.0,103.0,102.0,13.3,1505.2,343.5,-0.7,1.8,2471.627,13.29,0.014,132.3
2023-11-08T03:58:03,42.805,6.029,0.014,-0.033,0.007,103.0,103.0,101.0,13.4,1505.2,350.2,-0.8,1.8,2471.632,13.29,0.035,157.0
2023-11-08T04:04:03,42.805,6.029,0.01,-0.031,-0.013,104.0,103.0,101.0,13.3,1505.2,336.6,-0.8,1.8,2471.678,13.28,0.032,162.1
2023-11-08T04:07:03,42.805,6.029,0.019,-0.029,-0.008,103.0,103.0,101.0,13.4,1505.2,347.7,-0.7,1.8,2471.689,13.28,0.034,146.8
2023-11-08T04:10:03,42.805,6.029,0.03,-0.048,-0.043,102.0,103.0,102.0,13.3,1505.2,341.5,-0.8,1.8,2471.699,13.29,0.056,148.0
2023-11-08T04:13:03,42.805,6.029,0.027,-0.043,0.0,103.0,104.0,100.0,13.4,1505.2,347.9,-0.8,1.8,2471.688,13.29,0.05,147.9
2023-11-08T04:16:03,42.805,6.029,0.015,-0.017,-0.038,104.0,101.0,101.0,13.3,1505.2,348.2,-0.7,1.8,2471.652,13.29,0.022,138.6
2023-11-08T04:19:03,42.805,6.029,0.022,-0.035,-0.027,103.0,102.0,102.0,13.4,1505.2,357.9,-0.8,1.8,2471.68,13.29,0.041,147.8
2023-11-08T04:22:03,42.805,6.029,-0.002,-0.018,-0.001,102.0,102.0,100.0,13.3,1505.2,345.9,-0.8,1.8,2471.654,13.29,0.018,186.3
2023-11-08T04:25:03,42.805,6.029,0.014,-0.025,-0.006,104.0,103.0,101.0,13.4,1505.2,346.3,-0.8,1.8,2471.624,13.29,0.028,150.7
2023-11-08T04:28:03,42.805,6.029,-0.006,-0.021,-0.039,103.0,105.0,101.0,13.4,1505.2,357.4,-0.8,1.8,2471.647,13.29,0.021,195.9
2023-11-08T04:31:03,42.805,6.029,0.015,-0.051,-0.056,104.0,103.0,101.0,13.4,1505.2,343.4,-0.8,1.8,2471.615,13.29,0.053,163.6
2023-11-08T04:34:03,42.805,6.029,0.035,-0.008,-0.001,102.0,102.0,101.0,13.4,1505.2,336.3,-0.8,1.8,2471.614,13.29,0.035,102.9
2023-11-08T04:37:03,42.805,6.029,0.041,-0.017,0.019,103.0,103.0,101.0,13.4,1505.2,334.2,-0.7,1.8,2471.632,13.29,0.044,112.5
2023-11-08T04:40:03,42.805,6.029,0.01,-0.019,-0.012,104.0,102.0,101.0,13.4,1505.2,343.0,-0.8,1.8,2471.634,13.29,0.021,152.2
2023-11-08T04:43:03,42.805,6.029,0.007,-0.021,-0.015,103.0,104.0,101.0,13.3,1505.2,347.1,-0.8,1.8,2471.619,13.29,0.022,161.6
2023-11-08T04:46:03,42.805,6.029,0.007,-0.034,-0.02,103.0,103.0,101.0,13.4,1505.2,354.6,-0.8,1.8,2471.627,13.29,0.034,168.4
2023-11-08T04:49:03,42.805,6.029,0.025,-0.003,0.014,102.0,102.0,101.0,13.4,1505.2,343.0,-0.8,1.8,2471.643,13.29,0.025,96.8
2023-11-08T04:52:03,42.805,6.029,0.017,-0.055,-0.023,103.0,103.0,101.0,13.4,1505.2,346.1,-0.7,1.8,2471.637,13.29,0.057,162.8
2023-11-08T04:55:03,42.805,6.029,0.016,-0.035,0.011,103.0,103.0,101.0,13.4,1505.2,354.2,-0.7,1.8,2471.62,13.29,0.038,155.4
2023-11-08T04:58:03,42.805,6.029,0.01,-0.016,-0.023,105.0,103.0,101.0,13.3,1505.2,335.2,-0.7,1.8,2471.606,13.29,0.018,148.0
2023-11-08T05:04:03,42.805,6.029,0.029,-0.047,-0.022,105.0,104.0,101.0,13.4,1505.2,352.2,-0.8,1.8,2471.658,13.28,0.055,148.3
2023-11-08T05:07:03,42.805,6.029,0.021,-0.029,-0.024,104.0,103.0,101.0,13.4,1505.2,353.4,-0.8,1.8,2471.653,13.28,0.035,144.1
2023-11-08T05:10:03,42.805,6.029,0.018,-0.015,-0.021,103.0,104.0,101.0,13.4,1505.2,336.6,-0.8,1.8,2471.688,13.29,0.023,129.8
2023-11-08T05:13:03,42.805,6.029,0.0,-0.033,-0.056,103.0,103.0,101.0,13.4,1505.2,345.9,-0.8,1.8,2471.647,13.29,0.033,180.0
2023-11-08T05:16:03,42.805,6.029,0.014,-0.028,-0.002,104.0,104.0,102.0,13.3,1505.2,352.2,-0.8,1.8,2471.665,13.29,0.031,153.4
2023-11-08T05:19:03,42.805,6.029,0.011,-0.022,-0.01,103.0,103.0,101.0,13.4,1505.2,336.6,-0.8,1.8,2471.675,13.29,0.024,153.4
2023-11-08T05:22:03,42.805,6.029,0.021,-0.031,0.004,105.0,103.0,102.0,13.3,1505.2,358.1,-0.8,1.8,2471.619,13.29,0.037,145.9
2023-11-08T05:25:03,42.805,6.029,0.015,-0.024,-0.01,104.0,104.0,101.0,13.3,1505.2,354.3,-0.7,1.8,2471.658,13.29,0.028,148.0
2023-11-08T05:28:03,42.805,6.029,0.034,-0.034,0.01,104.0,103.0,102.0,13.4,1505.2,350.9,-0.8,1.8,2471.654,13.29,0.048,135.0
2023-11-08T05:31:03,42.805,6.029,0.032,-0.026,0.014,104.0,103.0,101.0,13.4,1505.2,335.6,-0.8,1.8,2471.596,13.29,0.041,129.1
2023-11-08T05:34:03,42.805,6.029,0.01,-0.021,0.022,104.0,104.0,102.0,13.4,1505.2,340.7,-0.8,1.8,2471.63,13.29,0.023,154.5
2023-11-08T05:37:03,42.805,6.029,0.014,-0.038,0.0,104.0,104.0,101.0,13.4,1505.2,354.3,-0.8,1.8,2471.623,13.29,0.04,159.8
2023-11-08T05:40:03,42.805,6.029,0.015,-0.017,-0.011,103.0,105.0,102.0,13.3,1505.2,333.0,-0.7,1.8,2471.608,13.29,0.022,138.6
2023-11-08T05:43:03,42.805,6.029,0.007,-0.029,-0.035,104.0,103.0,101.0,13.3,1505.2,0.0,-0.8,1.8,2471.61,13.29,0.029,166.4
2023-11-08T05:46:03,42.805,6.029,0.03,-0.027,-0.02,103.0,103.0,101.0,13.4,1505.2,341.0,-0.8,1.8,2471.593,13.29,0.04,132.0
2023-11-08T05:49:03,42.805,6.029,0.035,-0.043,0.004,104.0,104.0,102.0,13.4,1505.2,336.6,-0.7,1.8,2471.599,13.29,0.055,140.9
2023-11-08T05:52:03,42.805,6.029,0.026,-0.036,-0.011,104.0,104.0,101.0,13.3,1505.2,357.2,-0.8,1.8,2471.648,13.29,0.044,144.2
2023-11-08T05:55:03,42.805,6.029,-0.002,-0.018,-0.028,103.0,102.0,102.0,13.4,1505.2,345.1,-0.8,1.8,2471.647,13.29,0.018,186.3
2023-11-08T05:58:03,42.805,6.029,0.008,-0.016,0.012,104.0,104.0,102.0,13.4,1505.2,345.3,-0.7,1.8,2471.658,13.29,0.017,153.4
2023-11-08T06:04:03,42.805,6.029,0.018,-0.032,-0.017,103.0,103.0,101.0,13.4,1505.2,343.9,-0.8,1.8,2471.662,13.28,0.036,150.6
2023-11-08T06:07:03,42.805,6.029,0.029,-0.024,-0.005,103.0,103.0,102.0,13.4,1505.2,334.2,-0.7,1.8,2471.632,13.28,0.037,129.6
2023-11-08T06:10:03,42.805,6.029,0.013,-0.03,-0.014,104.0,103.0,102.0,13.3,1505.2,335.5,-0.8,1.8,2471.653,13.29,0.032,156.6
2023-11-08T06:13:03,42.805,6.029,0.017,-0.017,-0.017,104.0,103.0,102.0,13.4,1505.2,341.2,-0.8,1.8,2471.666,13.29,0.024,135.0
2023-11-08T06:16:03,42.805,6.029,0.012,-0.024,-0.057,104.0,103.0,100.0,13.3,1505.2,344.4,-0.8,1.8,2471.635,13.29,0.026,153.4
2023-11-08T06:19:03,42.805,6.029,-0.001,-0.029,-0.036,103.0,103.0,101.0,13.3,1505.2,343.0,-0.8,1.8,2471.622,13.29,0.029,182.0
2023-11-08T06:22:03,42.805,6.029,0.01,-0.035,-0.02,104.0,104.0,101.0,13.4,1505.2,0.0,-0.8,1.8,2471.627,13.29,0.036,164.1
2023-11-08T06:25:03,42.805,6.029,0.024,-0.054,-0.023,104.0,103.0,102.0,13.4,1505.2,343.4,-0.8,1.8,2471.639,13.29,0.059,156.0
2023-11-08T06:28:03,42.805,6.029,0.025,0.007,0.024,104.0,104.0,101.0,13.4,1505.2,340.0,-0.8,1.8,2471.62,13.29,0.025,74.4
2023-11-08T06:31:03,42.805,6.029,0.02,-0.022,0.003,104.0,103.0,102.0,13.4,1505.2,0.8,-0.8,1.8,2471.598,13.29,0.029,137.7
2023-11-08T06:34:03,42.805,6.029,0.024,-0.042,0.001,103.0,103.0,101.0,13.4,1505.2,353.6,-0.8,1.8,2471.592,13.29,0.048,150.3
2023-11-08T06:37:03,42.805,6.029,0.009,-0.039,-0.014,104.0,104.0,102.0,13.3,1505.2,342.8,-0.8,1.8,2471.583,13.29,0.04,167.0
2023-11-08T06:40:03,42.805,6.029,0.024,-0.014,-0.043,103.0,104.0,102.0,13.4,1505.2,351.1,-0.8,1.8,2471.621,13.29,0.027,120.3
2023-11-08T06:43:03,42.805,6.029,0.018,-0.027,-0.037,103.0,103.0,102.0,13.4,1505.2,354.4,-0.7,1.8,2471.619,13.29,0.032,146.3
2023-11-08T06:46:03,42.805,6.029,0.011,-0.044,-0.024,104.0,103.0,101.0,13.3,1505.2,351.1,-0.8,1.8,2471.626,13.29,0.045,166.0
2023-11-08T06:49:03,42.805,6.029,0.022,-0.022,-0.013,104.0,103.0,101.0,13.3,1505.2,338.5,-0.8,1.8,2471.632,13.29,0.031,135.0
2023-11-08T06:52:03,42.805,6.029,0.042,-0.031,-0.01,104.0,104.0,101.0,13.4,1505.2,347.3,-0.7,1.8,2471.626,13.29,0.052,126.4
2023-11-08T06:55:03,42.805,6.029,0.02,-0.022,0.003,103.0,103.0,101.0,13.4,1505.2,340.9,-0.8,1.8,2471.605,13.29,0.029,137.7
2023-11-08T06:58:03,42.805,6.029,0.031,-0.027,-0.019,104.0,102.0,101.0,13.4,1505.2,352.0,-0.8,1.8,2471.59,13.29,0.041,131.1
2023-11-08T07:04:03,42.805,6.029,0.016,-0.021,0.008,104.0,102.0,101.0,13.4,1505.2,334.5,-0.8,1.8,2471.622,13.28,0.026,142.7
2023-11-08T07:07:03,42.805,6.029,0.019,-0.041,-0.005,102.0,104.0,101.0,13.4,1505.2,0.0,-0.8,1.8,2471.652,13.28,0.045,155.1
2023-11-08T07:10:03,42.805,6.029,0.033,-0.039,0.0,103.0,102.0,101.0,13.3,1505.2,349.0,-0.8,1.8,2471.638,13.29,0.051,139.8
2023-11-08T07:13:03,42.805,6.029,0.026,-0.021,0.004,105.0,103.0,101.0,13.4,1505.2,337.0,-0.8,1.8,2471.66,13.29,0.033,128.9
2023-11-08T07:16:03,42.805,6.029,0.024,-0.024,-0.026,104.0,103.0,101.0,13.4,1505.2,335.9,-0.8,1.8,2471.658,13.29,0.033,135.0
2023-11-08T07:19:03,42.805,6.029,0.022,-0.043,0.008,104.0,104.0,101.0,13.4,1505.2,354.9,-0.7,1.8,2471.618,13.29,0.048,152.9
2023-11-08T07:22:03,42.805,6.029,0.025,-0.046,-0.004,105.0,103.0,102.0,13.3,1505.2,353.6,-0.8,1.8,2471.628,13.29,0.052,151.5
2023-11-08T07:25:03,42.805,6.029,0.013,-0.029,0.004,104.0,103.0,102.0,13.4,1505.2,352.1,-0.7,1.8,2471.597,13.29,0.031,155.9
2023-11-08T07:28:03,42.805,6.029,0.021,-0.019,-0.014,106.0,103.0,102.0,13.3,1505.2,337.8,-0.7,1.8,2471.613,13.29,0.028,132.1
2023-11-08T07:31:03,42.805,6.029,0.023,-0.041,0.013,105.0,103.0,102.0,13.4,1505.2,336.5,-0.7,1.8,2471.599,13.29,0.047,150.7
2023-11-08T07:34:03,42.805,6.029,-0.001,-0.035,-0.02,106.0,104.0,102.0,13.4,1505.2,352.8,-0.8,1.8,2471.593,13.29,0.035,181.6
2023-11-08T07:37:03,42.805,6.029,0.027,-0.048,-0.036,103.0,105.0,103.0,13.3,1505.2,344.7,-0.7,1.8,2471.613,13.29,0.055,150.6
2023-11-08T07:40:03,42.805,6.029,0.038,-0.027,-0.022,105.0,103.0,103.0,13.3,1505.2,339.8,-0.8,1.8,2471.618,13.29,0.046,125.4
2023-11-08T07:43:03,42.805,6.029,0.023,-0.033,-0.002,105.0,103.0,101.0,13.4,1505.2,355.1,-0.8,1.8,2471.623,13.29,0.04,145.1
2023-11-08T07:46:03,42.805,6.029,0.017,-0.037,-0.011,104.0,104.0,101.0,13.4,1505.2,338.5,-0.7,1.8,2471.6,13.29,0.04,155.3
2023-11-08T07:49:03,42.805,6.029,0.013,-0.06,-0.009,105.0,104.0,102.0,13.3,1505.2,359.0,-0.7,1.8,2471.614,13.29,0.061,167.8
2023-11-08T07:52:03,42.805,6.029,0.03,-0.044,0.012,104.0,104.0,102.0,13.4,1505.2,344.5,-0.8,1.8,2471.576,13.29,0.053,145.7
2023-11-08T07:55:03,42.805,6.029,0.025,-0.011,-0.002,104.0,104.0,101.0,13.3,1505.2,338.2,-0.8,1.8,2471.593,13.29,0.027,113.7
2023-11-08T07:58:03,42.805,6.029,0.029,-0.035,-0.01,106.0,104.0,102.0,13.4,1505.2,348.3,-0.8,1.8,2471.6,13.29,0.045,140.4
2023-11-08T08:04:03,42.805,6.029,0.002,-0.032,0.026,104.0,104.0,102.0,13.4,1505.2,353.3,-0.8,1.8,2471.621,13.28,0.032,176.4
2023-11-08T08:07:03,42.805,6.029,0.041,-0.031,0.0,104.0,103.0,102.0,13.3,1505.2,335.9,-0.8,1.8,2471.649,13.28,0.051,127.1
2023-11-08T08:10:03,42.805,6.029,0.018,-0.031,-0.041,104.0,104.0,103.0,13.3,1505.2,0.9,-0.8,1.8,2471.615,13.29,0.035,149.9
2023-11-08T08:13:03,42.805,6.029,0.016,-0.05,-0.023,105.0,104.0,102.0,13.3,1505.2,349.5,-0.8,1.8,2471.653,13.29,0.052,162.3
2023-11-08T08:16:03,42.805,6.029,0.033,-0.031,-0.004,103.0,103.0,102.0,13.4,1505.2,354.8,-0.8,1.8,2471.607,13.29,0.045,133.2
2023-11-08T08:19:03,42.805,6.029,0.011,-0.038,-0.032,104.0,104.0,102.0,13.4,1505.2,341.8,-0.8,1.9,2471.619,13.29,0.039,163.9
2023-11-08T08:22:03,42.805,6.029,0.037,-0.049,-0.028,104.0,105.0,101.0,13.3,1505.2,351.2,-0.7,1.8,2471.58,13.29,0.061,142.9
2023-11-08T08:25:03,42.805,6.029,0.021,-0.046,-0.002,105.0,104.0,103.0,13.3,1505.2,333.0,-0.8,1.8,2471.589,13.29,0.05,155.5
2023-11-08T08:28:03,42.805,6.029,0.0,-0.032,0.013,103.0,103.0,102.0,13.4,1505.2,359.0,-0.8,1.8,2471.587,13.29,0.032,180.0
2023-11-08T08:31:03,42.805,6.029,0.0,-0.023,0.001,104.0,103.0,102.0,13.4,1505.2,347.4,-0.8,1.8,2471.581,13.29,0.023,180.0
2023-11-08T08:34:03,42.805,6.029,0.015,-0.02,-0.009,103.0,103.0,103.0,13.4,1505.2,353.4,-0.8,1.8,2471.585,13.29,0.025,143.1
2023-11-08T08:37:03,42.805,6.029,0.025,-0.024,0.031,104.0,103.0,101.0,13.4,1505.2,334.6,-0.8,1.8,2471.573,13.29,0.034,133.8
2023-11-08T08:40:03,42.805,6.029,0.03,-0.021,0.008,105.0,103.0,103.0,13.4,1505.2,343.3,-0.8,1.8,2471.575,13.29,0.036,125.0
2023-11-08T08:43:03,42.805,6.029,0.02,-0.03,0.008,103.0,105.0,102.0,13.4,1505.2,0.0,-0.8,1.8,2471.624,13.29,0.036,146.3
2023-11-08T08:46:03,42.805,6.029,0.015,-0.03,-0.002,104.0,103.0,102.0,13.4,1505.2,342.7,-0.8,1.8,2471.58,13.29,0.033,153.4
2023-11-08T08:49:03,42.805,6.029,0.045,-0.036,0.012,104.0,103.0,102.0,13.3,1505.2,335.3,-0.8,1.9,2471.584,13.29,0.057,128.7
2023-11-08T08:52:03,42.805,6.029,0.018,-0.044,-0.01,104.0,103.0,102.0,13.4,1505.2,359.0,-0.8,1.8,2471.581,13.29,0.047,157.8
2023-11-08T08:55:03,42.805,6.029,0.011,-0.038,-0.002,105.0,104.0,102.0,13.4,1505.2,351.0,-0.8,1.8,2471.627,13.29,0.039,163.9
2023-11-08T08:58:03,42.805,6.029,0.024,-0.021,-0.019,105.0,103.0,102.0,13.4,1505.2,335.7,-0.8,1.8,2471.566,13.29,0.031,131.2
2023-11-08T09:04:03,42.805,6.029,0.013,-0.034,-0.013,104.0,104.0,103.0,13.4,1505.2,353.2,-0.8,1.8,2471.639,13.28,0.036,159.1
2023-11-08T09:07:03,42.805,6.029,0.028,-0.036,-0.034,104.0,105.0,101.0,13.4,1505.2,344.5,-0.7,1.8,2471.556,13.28,0.045,142.1
2023-11-08T09:10:03,42.805,6.029,0.021,-0.027,-0.007,105.0,104.0,102.0,13.4,1505.2,348.8,-0.8,1.8,2471.599,13.29,0.034,142.1
2023-11-08T09:13:03,42.805,6.029,0.024,-0.055,-0.014,104.0,104.0,102.0,13.4,1505.2,336.6,-0.8,1.8,2471.576,13.29,0.06,156.4
2023-11-08T09:16:03,42.805,6.029,0.009,-0.044,-0.015,103.0,105.0,103.0,13.4,1505.2,359.1,-0.8,1.8,2471.617,13.29,0.044,168.4
2023-11-08T09:19:03,42.805,6.029,0.045,-0.035,0.018,105.0,104.0,102.0,13.3,1505.2,348.1,-0.8,1.8,2471.58,13.29,0.057,127.9
2023-11-08T09:22:03,42.805,6.029,0.017,-0.05,0.011,105.0,104.0,102.0,13.3,1505.2,357.4,-0.7,1.8,2471.603,13.29,0.052,161.2
2023-11-08T09:25:03,42.805,6.029,0.026,-0.029,-0.019,104.0,103.0,102.0,13.3,1505.2,341.2,-0.8,1.8,2471.57,13.29,0.038,138.1
2023-11-08T09:28:03,42.805,6.029,0.033,-0.035,-0.003,104.0,105.0,102.0,13.4,1505.2,354.3,-0.8,1.8,2471.606,13.29,0.048,136.7
2023-11-08T09:31:03,42.805,6.029,0.027,-0.023,-0.012,106.0,103.0,102.0,13.4,1505.2,337.7,-0.8,1.8,2471.583,13.29,0.035,130.4
2023-11-08T09:34:03,42.805,6.029,0.001,-0.034,-0.004,104.0,104.0,103.0,13.3,1505.2,354.9,-0.8,1.8,2471.586,13.29,0.034,178.3
2023-11-08T09:37:03,42.805,6.029,0.013,-0.045,0.002,104.0,105.0,102.0,13.4,1505.2,349.6,-0.8,1.8,2471.545,13.29,0.046,163.9
2023-11-08T09:40:03,42.805,6.029,0.025,-0.032,-0.019,104.0,103.0,102.0,13.4,1505.2,335.8,-0.7,1.8,2471.566,13.29,0.04,142.0
2023-11-08T09:43:03,42.805,6.029,0.013,-0.036,0.0,105.0,104.0,102.0,13.4,1505.2,0.0,-0.8,1.8,2471.6,13.29,0.038,160.1
2023-11-08T09:46:03,42.805,6.029,0.016,-0.033,0.002,105.0,104.0,102.0,13.3,1505.2,350.6,-0.8,1.8,2471.594,13.29,0.036,154.1
2023-11-08T09:49:03,42.805,6.029,0.027,-0.021,-0.03,105.0,103.0,102.0,13.4,1505.2,336.3,-0.8,1.8,2471.578,13.29,0.034,127.9
2023-11-08T09:52:03,42.805,6.029,0.017,-0.03,-0.008,103.0,104.0,102.0,13.3,1505.2,346.9,-0.8,1.9,2471.585,13.29,0.034,150.5
2023-11-08T09:55:03,42.805,6.029,0.015,-0.016,-0.007,105.0,103.0,102.0,13.4,1505.2,344.8,-0.8,1.8,2471.574,13.29,0.021,136.9